�N����,����,����,����,����,�C��,���x,�~����,�S�V����,�ő�u�ԕ���,,,,,
,,,,,,,,,����,����,����,�N��,,
yyyy/mm/dd,hh:mm:ss,(16),16����,m/s,��,%,mm,KW/�u,(16),16����,m/s,Time,,
2015/7/1,1:00:00,13,���k��,0.3,13.1,100,0,0,15,�k�k��,1.9,6,,
2015/7/1,2:00:00,7,��쓌,0.4,13,100,0,0,13,���k��,1.2,8,,
2015/7/1,3:00:00,16,�k,0.3,13,100,0,0,14,�k��,1.2,49,,
2015/7/1,4:00:00,4,��,0.5,13,100,0,0,4,��,0.9,55,,
2015/7/1,5:00:00,2,�k��,0.6,13.2,100,0,0.01,15,�k�k��,1.2,20,,
2015/7/1,6:00:00,3,���k��,1,13.4,100,0,0.03,2,�k��,1.6,31,,
2015/7/1,7:00:00,1,�k�k��,0.6,13.9,100,0,0.06,4,��,1.9,10,,
2015/7/1,8:00:00,1,�k�k��,1.2,14.7,100,0,0.1,1,�k�k��,2.4,49,,
2015/7/1,9:00:00,4,��,2.2,14.1,100,0,0.1,4,��,3.1,41,,
2015/7/1,10:00:00,2,�k��,2.2,14.3,100,0,0.09,2,�k��,3.4,59,,
2015/7/1,11:00:00,4,��,2.9,14.2,100,0,0.18,4,��,4.2,41,,
2015/7/1,12:00:00,3,���k��,3.1,13.6,100,0,0.12,3,���k��,4.6,23,,
2015/7/1,13:00:00,3,���k��,2.5,14.2,100,0,0.13,3,���k��,4.6,2,,
2015/7/1,14:00:00,3,���k��,3.1,14.3,100,0,0.14,4,��,5,54,,
2015/7/1,15:00:00,3,���k��,3.1,14,100,0,0.12,3,���k��,4.4,56,,
2015/7/1,16:00:00,3,���k��,2.8,13.9,100,0,0.11,3,���k��,4.4,3,,
2015/7/1,17:00:00,3,���k��,1.8,13.8,100,0,0.04,3,���k��,4.4,18,,
2015/7/1,18:00:00,2,�k��,1.8,13.7,100,0.5,0.02,3,���k��,3.2,37,,
2015/7/1,19:00:00,14,�k��,0.5,14,100,0,0.02,3,���k��,2.1,4,,
2015/7/1,20:00:00,14,�k��,0.8,14,100,0,0,13,���k��,3,25,,
2015/7/1,21:00:00,13,���k��,2.1,14,100,0,0,13,���k��,3.5,41,,
2015/7/1,22:00:00,13,���k��,2.3,14.1,100,0,0,13,���k��,3.3,57,,
2015/7/1,23:00:00,13,���k��,2.2,14,100,0,0,13,���k��,3.7,1,,
2015/7/1,0:00:00,13,���k��,1.3,14,100,0,0,13,���k��,3.4,7,,
2015/7/2,1:00:00,10,�É�,0,13.8,100,0,0,13,���k��,2.2,8,,
2015/7/2,2:00:00,12,��,0.5,13.7,100,0,0,11,���쐼,1,23,,
2015/7/2,3:00:00,10,�쐼,0.4,13.7,100,0.5,0,13,���k��,1.3,26,,
2015/7/2,4:00:00,6,�쓌,1.7,13,100,0,0,5,���쓌,3.4,6,,
2015/7/2,5:00:00,7,��쓌,1.5,12.8,100,0,0.02,5,���쓌,2.9,18,,
2015/7/2,6:00:00,8,��,1.9,13.3,100,0,0.06,8,��,4.2,53,,
2015/7/2,7:00:00,7,��쓌,1.3,13.8,100,0,0.14,7,��쓌,4,35,,
2015/7/2,8:00:00,7,��쓌,2,14.2,100,0,0.29,9,��쐼,4.6,38,,
2015/7/2,9:00:00,2,�k��,1.1,14.9,95.6,0,0.38,5,���쓌,4,8,,
2015/7/2,10:00:00,4,��,3.4,18.2,89.3,0,0.75,4,��,4.8,52,,
2015/7/2,11:00:00,5,���쓌,3.6,17.8,86.4,0,1.04,5,���쓌,5.5,32,,
2015/7/2,12:00:00,5,���쓌,2.5,19.6,80.3,0,1.08,5,���쓌,5,3,,
2015/7/2,13:00:00,5,���쓌,2.4,20.5,71.9,0,1.04,5,���쓌,6.4,14,,
2015/7/2,14:00:00,5,���쓌,2.3,22.5,63,0,0.93,4,��,4.7,34,,
2015/7/2,15:00:00,11,���쐼,5.6,26.3,40.6,0,0.59,11,���쐼,10.7,37,,
2015/7/2,16:00:00,9,��쐼,3,21.4,59.8,0,0.29,11,���쐼,8.6,0,,
2015/7/2,17:00:00,11,���쐼,1.1,21.6,69.1,0,0.11,10,�쐼,4.9,3,,
2015/7/2,18:00:00,3,���k��,1,20,73.1,0,0.05,6,�쓌,3.2,29,,
2015/7/2,19:00:00,9,��쐼,3.4,20.3,69,0,0.01,8,��,6.9,58,,
2015/7/2,20:00:00,8,��,2.1,15.8,88.2,0,0,8,��,7.2,17,,
2015/7/2,21:00:00,9,��쐼,4.3,16.5,85.2,0,0,7,��쓌,10.3,27,,
2015/7/2,22:00:00,8,��,3.3,16.7,83.7,0,0,8,��,8.7,24,,
2015/7/2,23:00:00,8,��,2.9,15.2,94.1,0,0,8,��,6.7,39,,
2015/7/2,0:00:00,10,�쐼,2.8,14.5,97.6,0,0,8,��,5.9,46,,
2015/7/3,1:00:00,11,���쐼,1.2,13,98.3,0,0,11,���쐼,4.5,18,,
2015/7/3,2:00:00,1,�k�k��,0.7,13.3,99.7,0,0,12,��,2.5,47,,
2015/7/3,3:00:00,16,�k,0.7,12.4,100,0,0,13,���k��,3.1,32,,
2015/7/3,4:00:00,4,�É�,0,11.9,100,0,0,15,�k�k��,1.3,5,,
2015/7/3,5:00:00,3,���k��,0.8,13.9,100,0,0.04,15,�k�k��,1.7,23,,
2015/7/3,6:00:00,12,��,2.4,15.3,100,0,0.16,12,��,3.8,56,,
2015/7/3,7:00:00,4,��,2.2,16.9,90,0,0.41,10,�쐼,3.9,40,,
2015/7/3,8:00:00,5,���쓌,2.5,20.5,71.1,0,0.63,4,��,5,24,,
2015/7/3,9:00:00,4,��,3.8,21.4,67.9,0,0.8,4,��,6.2,43,,
2015/7/3,10:00:00,5,���쓌,3.2,18.9,70.6,0,0.87,4,��,5.5,15,,
2015/7/3,11:00:00,6,�쓌,3.1,22.4,58.4,0,1.04,5,���쓌,5.2,20,,
2015/7/3,12:00:00,6,�쓌,3.7,21.6,58,0,1.08,5,���쓌,6.1,40,,
2015/7/3,13:00:00,5,���쓌,1.7,22.7,64.2,0,0.96,6,�쓌,6,14,,
2015/7/3,14:00:00,5,���쓌,2.1,23.9,55.7,0,0.92,4,��,4.5,42,,
2015/7/3,15:00:00,6,�쓌,2.8,24.3,45.1,0,0.8,6,�쓌,4.5,56,,
2015/7/3,16:00:00,5,���쓌,3.1,24.8,49.3,0,0.63,4,��,4.5,51,,
2015/7/3,17:00:00,5,���쓌,1.4,21.9,57.6,0,0.37,6,�쓌,4.6,3,,
2015/7/3,18:00:00,2,�k��,1.9,18.8,76.9,0,0.1,2,�k��,2.9,50,,
2015/7/3,19:00:00,12,��,0.7,16.5,90.9,0,0.03,1,�k�k��,2.3,6,,
2015/7/3,20:00:00,12,��,1.3,15.2,94.5,0,0,12,��,2.2,45,,
2015/7/3,21:00:00,2,�k��,2.7,16.6,82.7,0,0,3,���k��,6.9,38,,
2015/7/3,22:00:00,3,���k��,1.8,15.5,90.7,0,0,2,�k��,5.1,4,,
2015/7/3,23:00:00,12,��,1.3,12.5,97.7,0,0,3,���k��,2.9,6,,
2015/7/3,0:00:00,13,���k��,1.3,13,98.8,0,0,12,��,2.5,24,,
2015/7/4,1:00:00,13,���k��,1.7,12.7,98.8,0,0,13,���k��,2.3,53,,
2015/7/4,2:00:00,12,��,2,12.4,99.3,0,0,12,��,2.4,47,,
2015/7/4,3:00:00,13,���k��,1.7,12.5,99.5,0,0,12,��,2.7,3,,
2015/7/4,4:00:00,13,���k��,1.9,12.5,99.4,0,0,13,���k��,3.1,55,,
2015/7/4,5:00:00,13,���k��,2.1,13.2,98.9,0,0.05,13,���k��,3.1,2,,
2015/7/4,6:00:00,12,��,0.6,15.4,92.7,0,0.17,13,���k��,2.5,13,,
2015/7/4,7:00:00,13,���k��,0.4,16.7,86.7,0,0.23,11,���쐼,2.4,7,,
2015/7/4,8:00:00,4,��,2.3,16.7,84.4,0,0.14,3,���k��,3.8,34,,
2015/7/4,9:00:00,5,���쓌,2.6,17.5,81.7,0,0.24,4,��,4.5,27,,
2015/7/4,10:00:00,5,���쓌,2.6,16.9,82.9,0,0.42,5,���쓌,4.4,8,,
2015/7/4,11:00:00,5,���쓌,2.4,15.8,89.5,0,0.4,5,���쓌,4.8,28,,
2015/7/4,12:00:00,4,��,3.1,16.4,83.6,0,0.47,5,���쓌,5.7,46,,
2015/7/4,13:00:00,6,�쓌,2.2,15.9,89.1,0,0.54,5,���쓌,5.3,7,,
2015/7/4,14:00:00,6,�쓌,2,14.8,90.7,0,0.35,6,�쓌,4,55,,
2015/7/4,15:00:00,5,���쓌,1.5,15.1,91.2,0,0.34,5,���쓌,4.3,1,,
2015/7/4,16:00:00,5,���쓌,1.1,15.7,88.8,0,0.23,5,���쓌,3.7,24,,
2015/7/4,17:00:00,4,��,0.7,14.5,92.2,0,0.14,5,���쓌,3.9,2,,
2015/7/4,18:00:00,6,�쓌,1.3,14.1,93.4,0,0.06,5,���쓌,2.9,33,,
2015/7/4,19:00:00,10,�쐼,0.9,13.4,95.6,0,0.02,7,��쓌,2.8,2,,
2015/7/4,20:00:00,16,�k,1.2,13.3,96.6,0,0,13,���k��,2.1,8,,
2015/7/4,21:00:00,9,��쐼,0.9,13.1,97.7,0,0,14,�k��,2,41,,
2015/7/4,22:00:00,15,�k�k��,1,12.9,98.4,0,0,13,���k��,2.3,5,,
2015/7/4,23:00:00,16,�k,0.9,12.8,99.6,0,0,2,�k��,2.8,44,,
2015/7/4,0:00:00,2,�k��,1.2,12.7,99.9,0,0,4,��,2.6,40,,
2015/7/5,1:00:00,12,��,0.4,12.5,100,0,0,4,��,2.6,24,,
2015/7/5,2:00:00,14,�k��,0.5,12.4,100,0,0,9,��쐼,1.8,35,,
2015/7/5,3:00:00,3,���k��,1,12.2,100,0,0,3,���k��,1.8,52,,
2015/7/5,4:00:00,16,�k,1.9,12,100,0,0,15,�k�k��,3.1,54,,
2015/7/5,5:00:00,5,���쓌,0.3,12.1,100,0,0.02,14,�k��,2.9,14,,
2015/7/5,6:00:00,6,�쓌,1.5,12.2,100,0,0.04,6,�쓌,2.8,47,,
2015/7/5,7:00:00,4,��,1.4,13.4,100,0,0.16,6,�쓌,2.5,40,,
2015/7/5,8:00:00,5,���쓌,1.7,13.4,100,0,0.22,4,��,3,46,,
2015/7/5,9:00:00,4,��,2.2,14.2,93.3,0,0.33,5,���쓌,4,58,,
2015/7/5,10:00:00,6,�쓌,3.9,14,91.7,0,0.37,6,�쓌,5.3,56,,
2015/7/5,11:00:00,7,��쓌,2.8,13.8,92.3,0,0.4,6,�쓌,5.4,21,,
2015/7/5,12:00:00,7,��쓌,2.6,14.2,91.6,0,0.43,7,��쓌,5.1,12,,
2015/7/5,13:00:00,7,��쓌,3.2,14.3,88.8,0,0.45,7,��쓌,4.8,55,,
2015/7/5,14:00:00,7,��쓌,2.7,15.2,88.9,0,0.45,5,���쓌,4.4,22,,
2015/7/5,15:00:00,6,�쓌,2.5,14,93,0,0.32,6,�쓌,4.2,5,,
2015/7/5,16:00:00,6,�쓌,1.9,14.2,96.2,0,0.22,5,���쓌,3.9,33,,
2015/7/5,17:00:00,7,��쓌,1.4,13.6,97.5,0,0.12,6,�쓌,3.1,25,,
2015/7/5,18:00:00,6,�쓌,1.3,13.2,96.9,0,0.03,6,�쓌,2.6,8,,
2015/7/5,19:00:00,4,��,1.2,13.1,97.7,0,0.02,6,�쓌,2.4,3,,
2015/7/5,20:00:00,1,�k�k��,0.9,13,98.1,0,0,2,�k��,2.2,25,,
2015/7/5,21:00:00,14,�k��,0.6,13,98.8,0,0,1,�k�k��,1.8,6,,
2015/7/5,22:00:00,15,�k�k��,0.9,13.1,99.2,0,0,13,���k��,1.9,14,,
2015/7/5,23:00:00,2,�k��,1.3,13.2,96.3,0,0,1,�k�k��,2.8,45,,
2015/7/5,0:00:00,3,�É�,0.1,13.1,96.3,0,0,2,�k��,2.3,23,,
2015/7/6,1:00:00,1,�k�k��,0.7,12.9,97.5,0,0,2,�k��,1.5,56,,
2015/7/6,2:00:00,8,�É�,0,13,97.5,0,0,2,�k��,1.7,4,,
2015/7/6,3:00:00,6,�쓌,0.4,13,97.6,0,0,10,�쐼,1.7,31,,
2015/7/6,4:00:00,10,�쐼,0.3,13,98.3,0,0,7,��쓌,0.9,38,,
2015/7/6,5:00:00,4,��,1.3,13.2,98.3,0,0.01,5,���쓌,1.8,59,,
2015/7/6,6:00:00,10,�쐼,1.2,13.6,99.4,0,0.06,10,�쐼,2.1,59,,
2015/7/6,7:00:00,11,���쐼,1.7,15.1,93.1,0,0.17,12,��,3,20,,
2015/7/6,8:00:00,15,�k�k��,1,16.6,87,0,0.39,14,�k��,3.1,46,,
2015/7/6,9:00:00,6,�쓌,2,17.7,82.6,0,0.52,4,��,4.8,41,,
2015/7/6,10:00:00,6,�쓌,3.4,18.1,76.4,0,0.94,5,���쓌,5.4,4,,
2015/7/6,11:00:00,6,�쓌,3.5,18.5,75,0,1.02,5,���쓌,5.4,10,,
2015/7/6,12:00:00,6,�쓌,3.9,18,75.5,0,0.8,7,��쓌,5.8,59,,
2015/7/6,13:00:00,6,�쓌,3.8,17.6,80.3,0,1.02,6,�쓌,6.6,27,,
2015/7/6,14:00:00,7,��쓌,3.2,16.5,86.2,0,0.65,6,�쓌,6.7,20,,
2015/7/6,15:00:00,7,��쓌,3.5,15.7,81.9,0,0.53,9,��쐼,7,0,,
2015/7/6,16:00:00,7,��쓌,2.9,15,85.4,0,0.5,7,��쓌,5.9,42,,
2015/7/6,17:00:00,7,��쓌,2.7,14.3,91,0,0.15,7,��쓌,5.7,2,,
2015/7/6,18:00:00,7,��쓌,1.8,13.8,94.2,0,0.05,7,��쓌,3.9,20,,
2015/7/6,19:00:00,7,��쓌,1.7,13.3,97.4,0,0.01,7,��쓌,4.1,37,,
2015/7/6,20:00:00,5,���쓌,1.8,13.3,98.8,0,0,6,�쓌,4.4,21,,
2015/7/6,21:00:00,1,�k�k��,2,13.3,99.3,0,0,2,�k��,3.2,30,,
2015/7/6,22:00:00,16,�k,1.8,13.4,99.6,0,0,1,�k�k��,4.2,45,,
2015/7/6,23:00:00,13,���k��,1.8,13.5,99.5,0,0,14,�k��,3.4,32,,
2015/7/6,0:00:00,1,�k�k��,0.9,13.3,99.2,0,0,14,�k��,3,26,,
2015/7/7,1:00:00,7,��쓌,0.6,13.2,99.3,0,0,14,�k��,1.6,37,,
2015/7/7,2:00:00,11,���쐼,0.4,12.9,99.6,0,0,13,���k��,2.1,30,,
2015/7/7,3:00:00,10,�쐼,0.9,12.7,99.8,0,0,11,���쐼,1.8,33,,
2015/7/7,4:00:00,10,�쐼,0.7,12.7,100,0,0,11,���쐼,1.9,59,,
2015/7/7,5:00:00,6,�쓌,1,12.4,100,0,0.02,10,�쐼,2.7,2,,
2015/7/7,6:00:00,4,��,1.5,13.9,100,0,0.13,1,�k�k��,3,42,,
2015/7/7,7:00:00,7,��쓌,0.7,18.5,82.5,0,0.42,2,�k��,2.7,29,,
2015/7/7,8:00:00,5,���쓌,1.5,20.9,75.4,0,0.52,7,��쓌,2.9,54,,
2015/7/7,9:00:00,10,�쐼,5.9,23.8,46.8,0,0.68,10,�쐼,9.2,59,,
2015/7/7,10:00:00,11,���쐼,10.9,24.3,43.9,0,0.83,11,���쐼,17.7,51,,
2015/7/7,11:00:00,11,���쐼,12,24.5,47,0,0.87,10,�쐼,18.4,21,,
2015/7/7,12:00:00,10,�쐼,8.1,23.1,55.3,0,0.81,10,�쐼,15.5,1,,
2015/7/7,13:00:00,11,���쐼,9.5,23.5,52.1,0,0.76,10,�쐼,15.1,47,,
2015/7/7,14:00:00,11,���쐼,7.2,23.8,56.4,0,0.46,11,���쐼,13.5,0,,
2015/7/7,15:00:00,11,���쐼,7.4,24.9,53.1,0,0.82,11,���쐼,12.4,36,,
2015/7/7,16:00:00,11,���쐼,6.8,24.9,49.5,0,0.63,10,�쐼,10.9,6,,
2015/7/7,17:00:00,2,�k��,3.3,24.6,47.5,0,0.46,11,���쐼,11,5,,
2015/7/7,18:00:00,1,�k�k��,4,21.8,48.5,0,0.26,1,�k�k��,7.4,55,,
2015/7/7,19:00:00,15,�k�k��,4.4,19.2,52.7,0,0.08,15,�k�k��,12.9,27,,
2015/7/7,20:00:00,1,�k�k��,4.1,17.8,57.6,0,0,15,�k�k��,11,6,,
2015/7/7,21:00:00,4,��,2.6,13,77.6,0,0,1,�k�k��,9,14,,
2015/7/7,22:00:00,3,���k��,3,11.6,80.2,0,0,3,���k��,4.2,42,,
2015/7/7,23:00:00,8,��,0.7,9.1,93.5,0,0,4,��,4.4,3,,
2015/7/7,0:00:00,13,���k��,1,8.3,97.2,0,0,3,���k��,1.9,23,,
2015/7/8,1:00:00,13,���k��,1.3,7,97.4,0,0,12,��,2.3,41,,
2015/7/8,2:00:00,13,���k��,2.2,8.3,93.1,0,0,13,���k��,3.1,59,,
2015/7/8,3:00:00,13,���k��,2.2,7.8,92.4,0,0,13,���k��,3.6,44,,
2015/7/8,4:00:00,13,���k��,2.5,7.5,96.3,0,0,14,�k��,4.3,35,,
2015/7/8,5:00:00,13,���k��,2.6,7.8,91.2,0,0.07,12,��,3.8,59,,
2015/7/8,6:00:00,12,��,1.9,10.4,85.8,0,0.24,13,���k��,3.9,1,,
2015/7/8,7:00:00,2,�k��,2.7,14.1,62.7,0,0.44,2,�k��,4.8,59,,
2015/7/8,8:00:00,2,�k��,2.8,15.6,59.2,0,0.63,3,���k��,5.7,38,,
2015/7/8,9:00:00,6,�쓌,3.6,15.6,58.2,0,0.79,5,���쓌,5.3,25,,
2015/7/8,10:00:00,6,�쓌,3.8,16,56.7,0,0.94,6,�쓌,5.8,48,,
2015/7/8,11:00:00,7,��쓌,3.9,15.1,59.9,0,1.03,7,��쓌,7.7,36,,
2015/7/8,12:00:00,7,��쓌,4.3,15.7,59.6,0,1.07,8,��,7.5,35,,
2015/7/8,13:00:00,8,��,4,15.7,59.1,0,1.01,7,��쓌,7.3,11,,
2015/7/8,14:00:00,7,��쓌,4.5,15.6,63.9,0,0.94,7,��쓌,7.6,53,,
2015/7/8,15:00:00,7,��쓌,4.4,15.3,69.7,0,0.77,7,��쓌,8.8,43,,
2015/7/8,16:00:00,8,��,4.3,14.4,71.9,0,0.61,7,��쓌,7.4,33,,
2015/7/8,17:00:00,8,��,3.7,14.4,74.1,0,0.43,8,��,6.7,33,,
2015/7/8,18:00:00,6,�쓌,3,13.6,81.2,0,0.25,7,��쓌,6.7,45,,
2015/7/8,19:00:00,7,��쓌,1.6,12.7,87.7,0,0.07,7,��쓌,5.3,33,,
2015/7/8,20:00:00,5,���쓌,3.1,12.8,89.2,0,0,4,��,5.8,35,,
2015/7/8,21:00:00,6,�쓌,2.3,12.8,90.7,0,0,6,�쓌,5.1,13,,
2015/7/8,22:00:00,7,��쓌,2.1,12.6,92,0,0,7,��쓌,4.8,4,,
2015/7/8,23:00:00,4,��,1.2,10.9,96.5,0,0,6,�쓌,3.3,2,,
2015/7/8,0:00:00,15,�k�k��,1.6,10.3,98.6,0,0,1,�k�k��,2.6,48,,
2015/7/9,1:00:00,14,�k��,1.9,11.9,95.5,0,0,14,�k��,3.2,42,,
2015/7/9,2:00:00,14,�k��,1.7,10.5,96.4,0,0,14,�k��,3.8,24,,
2015/7/9,3:00:00,13,���k��,2.6,9.8,97,0,0,13,���k��,3.5,51,,
2015/7/9,4:00:00,14,�k��,2.1,10.1,98.7,0,0,13,���k��,4.1,25,,
2015/7/9,5:00:00,13,���k��,1.4,10.4,97.3,0,0.02,14,�k��,4.1,4,,
2015/7/9,6:00:00,5,���쓌,0.3,10.7,96.6,0,0.06,14,�k��,2.3,0,,
2015/7/9,7:00:00,11,���쐼,1.1,11.2,94,0,0.14,11,���쐼,2.4,6,,
2015/7/9,8:00:00,11,���쐼,0.7,12.3,91.4,0,0.24,12,��,2.5,1,,
2015/7/9,9:00:00,1,�k�k��,1.2,13.6,83.7,0,0.37,15,�k�k��,2.2,58,,
2015/7/9,10:00:00,5,���쓌,2.2,14.9,77.2,0,0.61,5,���쓌,4.1,52,,
2015/7/9,11:00:00,7,��쓌,3.3,16.2,76.2,0,1.05,7,��쓌,5.7,52,,
2015/7/9,12:00:00,7,��쓌,3.5,16.3,75.3,0,1.05,6,�쓌,6.1,49,,
2015/7/9,13:00:00,6,�쓌,2.6,16.3,80.6,0,0.99,6,�쓌,6.7,10,,
2015/7/9,14:00:00,6,�쓌,2.3,17,79.1,0,0.85,6,�쓌,5.7,16,,
2015/7/9,15:00:00,4,��,2.4,18.2,76.3,0,0.78,6,�쓌,4.4,0,,
2015/7/9,16:00:00,3,���k��,2.6,19.5,75.9,0,0.62,3,���k��,4.7,16,,
2015/7/9,17:00:00,4,��,3.2,18.5,72.3,0,0.44,4,��,4.2,55,,
2015/7/9,18:00:00,3,���k��,1.7,17.7,79.9,0,0.24,5,���쓌,4,3,,
2015/7/9,19:00:00,4,��,0.7,14.4,89.9,0,0.07,5,���쓌,2.2,15,,
2015/7/9,20:00:00,3,�É�,0,12.7,96.6,0,0,5,���쓌,1.1,11,,
2015/7/9,21:00:00,2,�k��,1.9,12.8,96.4,0,0,2,�k��,3.4,37,,
2015/7/9,22:00:00,2,�k��,1.5,12.5,96.8,0,0,2,�k��,3.2,26,,
2015/7/9,23:00:00,16,�É�,0.2,10.4,98.4,0,0,2,�k��,2.5,4,,
2015/7/9,0:00:00,12,��,1.2,8.3,99.2,0,0,11,���쐼,1.5,53,,
2015/7/10,1:00:00,11,���쐼,0.9,8.5,99.8,0,0,12,��,2.1,30,,
2015/7/10,2:00:00,13,���k��,1.1,7.4,99.8,0,0,12,��,2.3,36,,
2015/7/10,3:00:00,12,��,2,8.2,100,0,0,12,��,2.5,33,,
2015/7/10,4:00:00,12,��,1.7,7.9,100,0,0,12,��,2.5,28,,
2015/7/10,5:00:00,12,��,1,9.1,100,0,0.06,12,��,2.5,36,,
2015/7/10,6:00:00,2,�k��,0.4,12.9,99.3,0,0.24,12,��,1.5,2,,
2015/7/10,7:00:00,1,�k�k��,0.3,17.1,84.4,0,0.44,1,�k�k��,1.7,47,,
2015/7/10,8:00:00,7,��쓌,0.6,20.4,73.2,0,0.62,8,��,2,36,,
2015/7/10,9:00:00,7,��쓌,2.4,19.6,69.3,0,0.79,7,��쓌,3.9,30,,
2015/7/10,10:00:00,7,��쓌,3.4,17.9,74.7,0,0.93,7,��쓌,5.1,52,,
2015/7/10,11:00:00,7,��쓌,2.7,20.8,65.5,0,1.03,7,��쓌,4.8,41,,
2015/7/10,12:00:00,7,��쓌,3,21.8,58.7,0,1.07,7,��쓌,4.7,48,,
2015/7/10,13:00:00,7,��쓌,3,21.1,59.3,0,1.04,7,��쓌,4.9,42,,
2015/7/10,14:00:00,7,��쓌,3,21.9,57.6,0,0.94,7,��쓌,5.3,50,,
2015/7/10,15:00:00,6,�쓌,2.2,21.5,53,0,0.79,7,��쓌,4.4,12,,
2015/7/10,16:00:00,6,�쓌,1.9,22,56.8,0,0.61,7,��쓌,3.1,5,,
2015/7/10,17:00:00,4,��,1.1,21.8,64.3,0,0.33,6,�쓌,2.5,3,,
2015/7/10,18:00:00,3,���k��,1.9,19.8,71.6,0,0.28,4,��,3.8,59,,
2015/7/10,19:00:00,4,��,1.8,15.1,91.9,0,0.05,3,���k��,3.7,29,,
2015/7/10,20:00:00,3,���k��,1,13.9,95.2,0,0,3,���k��,3.1,16,,
2015/7/10,21:00:00,2,�k��,1,13.6,96.1,0,0,3,���k��,2.6,37,,
2015/7/10,22:00:00,12,��,1.5,12.2,99,0,0,2,�k��,2.2,7,,
2015/7/10,23:00:00,12,��,1.3,11,99.1,0,0,12,��,1.9,58,,
2015/7/10,0:00:00,12,��,2.3,11.8,98.7,0,0,14,�k��,3.2,44,,
2015/7/11,1:00:00,13,���k��,2.6,10.4,98,0,0,12,��,3.2,52,,
2015/7/11,2:00:00,12,��,1.6,9.4,98.3,0,0,13,���k��,3.2,0,,
2015/7/11,3:00:00,12,��,1.9,8.5,98.7,0,0,12,��,2.4,53,,
2015/7/11,4:00:00,11,���쐼,2.2,9.1,99.5,0,0,12,��,2.8,56,,
2015/7/11,5:00:00,12,��,1.7,10,98.4,0,0.06,12,��,2.9,34,,
2015/7/11,6:00:00,13,���k��,1.5,15.1,90.3,0,0.23,12,��,2.5,50,,
2015/7/11,7:00:00,12,��,0.9,19.5,75.1,0,0.43,13,���k��,2,27,,
2015/7/11,8:00:00,11,���쐼,0.4,23.1,60.7,0,0.62,13,���k��,1.8,20,,
2015/7/11,9:00:00,8,��,1.5,24.5,40.8,0,0.78,5,���쓌,3.2,31,,
2015/7/11,10:00:00,7,��쓌,2.1,25.6,50.5,0,0.93,8,��,3.3,59,,
2015/7/11,11:00:00,7,��쓌,2.5,24.1,51.2,0,1.02,6,�쓌,4.9,29,,
2015/7/11,12:00:00,7,��쓌,2.7,23.9,50.5,0,1.06,6,�쓌,4.3,57,,
2015/7/11,13:00:00,7,��쓌,2.5,24.3,46.8,0,1.02,7,��쓌,4.8,25,,
2015/7/11,14:00:00,8,��,2.5,26.2,45.3,0,0.92,9,��쐼,4.7,47,,
2015/7/11,15:00:00,8,��,2.3,27,43.6,0,0.77,8,��,5.1,10,,
2015/7/11,16:00:00,8,��,1.8,26.7,38.8,0,0.6,8,��,5.5,0,,
2015/7/11,17:00:00,9,��쐼,1.3,26.3,46.3,0,0.37,9,��쐼,3.5,2,,
2015/7/11,18:00:00,5,���쓌,1.2,24.2,64.9,0,0.21,9,��쐼,2,23,,
2015/7/11,19:00:00,5,���쓌,2,17.9,86.6,0,0.06,5,���쓌,2.4,0,,
2015/7/11,20:00:00,2,�k��,1.3,16.9,88.8,0,0,3,���k��,3.1,23,,
2015/7/11,21:00:00,2,�k��,1.5,16.7,88,0,0,3,���k��,2.8,21,,
2015/7/11,22:00:00,2,�k��,1.6,16.2,91.1,0,0,2,�k��,2.5,0,,
2015/7/11,23:00:00,15,�k�k��,0.8,14.8,96.5,0,0,13,���k��,2.4,15,,
2015/7/11,0:00:00,13,���k��,1.6,14.6,93.8,0,0,12,��,2.7,45,,
2015/7/12,1:00:00,12,��,1.1,13.8,95.9,0,0,11,���쐼,2.9,20,,
2015/7/12,2:00:00,13,���k��,0.7,13.9,94.9,0,0,13,���k��,2.3,39,,
2015/7/12,3:00:00,12,��,1.8,13.6,96,0,0,12,��,2.1,57,,
2015/7/12,4:00:00,13,���k��,1.4,12.5,97.7,0,0,12,��,2.1,52,,
2015/7/12,5:00:00,12,��,1.6,14.2,95.8,0,0.03,12,��,3.1,19,,
2015/7/12,6:00:00,11,���쐼,0.8,17.8,88.3,0,0.17,12,��,1.7,53,,
2015/7/12,7:00:00,12,��,0.7,21.6,74.7,0,0.3,13,���k��,2.2,34,,
2015/7/12,8:00:00,9,��쐼,0.6,26.4,67.6,0,0.58,9,��쐼,2.1,36,,
2015/7/12,9:00:00,7,��쓌,2.4,26.9,61.9,0,0.72,7,��쓌,3.6,25,,
2015/7/12,10:00:00,7,��쓌,2.5,26.8,62.4,0,0.82,7,��쓌,3.8,42,,
2015/7/12,11:00:00,7,��쓌,2.7,27.2,53.9,0,1,7,��쓌,4.6,14,,
2015/7/12,12:00:00,8,��,1.3,28.3,48.2,0,0.98,8,��,3.8,2,,
2015/7/12,13:00:00,7,�É�,0.1,28.6,49.7,0,1,8,��,3.4,28,,
2015/7/12,14:00:00,6,�É�,0,28.5,50.4,0,0.89,8,��,0.8,11,,
2015/7/12,15:00:00,7,��쓌,0.4,27,55.3,0,0.69,8,��,2.4,53,,
2015/7/12,16:00:00,7,��쓌,0.6,26,62.4,0,0.52,7,��쓌,2.8,17,,
2015/7/12,17:00:00,6,�É�,0.2,24.7,62.7,0,0.25,6,�쓌,2.1,9,,
2015/7/12,18:00:00,4,��,2.3,21.2,79.4,0,0.13,4,��,3.6,55,,
2015/7/12,19:00:00,5,���쓌,1.4,19.5,86.7,0,0.03,3,���k��,3,21,,
2015/7/12,20:00:00,16,�k,0.3,18.7,91.1,0,0,4,��,1.7,0,,
2015/7/12,21:00:00,3,���k��,0.7,18.4,90.9,0,0,4,��,1.7,41,,
2015/7/12,22:00:00,3,���k��,0.3,18.5,92.7,0,0,1,�k�k��,1.8,32,,
2015/7/12,23:00:00,3,���k��,0.8,18.8,83.8,0,0,3,���k��,3.5,22,,
2015/7/12,0:00:00,11,���쐼,0.5,17.5,95.7,0,0,12,��,1.6,48,,
2015/7/13,1:00:00,12,��,0.8,17.5,94.8,0,0,13,���k��,1.9,24,,
2015/7/13,2:00:00,12,��,1.3,16.7,95.9,0,0,12,��,2,43,,
2015/7/13,3:00:00,13,���k��,1.1,17.1,96.5,0,0,12,��,2.1,48,,
2015/7/13,4:00:00,12,��,1.4,16.9,97.1,0,0,12,��,2.2,3,,
2015/7/13,5:00:00,12,��,0.9,17.6,96,0,0.03,12,��,2.1,4,,
2015/7/13,6:00:00,4,��,1,19.7,88.6,0,0.12,4,��,1.8,58,,
2015/7/13,7:00:00,5,���쓌,1.5,20.6,80.8,0,0.27,6,�쓌,2.2,53,,
2015/7/13,8:00:00,5,���쓌,1.6,21.4,76.8,0,0.4,5,���쓌,3.3,18,,
2015/7/13,9:00:00,7,��쓌,1.2,20.2,83.3,0,0.34,5,���쓌,2.9,20,,
2015/7/13,10:00:00,5,���쓌,2.9,20.8,80.8,0,0.38,4,��,4,54,,
2015/7/13,11:00:00,5,���쓌,2.4,21.1,75.5,0,0.58,4,��,4.9,12,,
2015/7/13,12:00:00,6,�쓌,1.6,20.8,82.2,0,0.51,6,�쓌,3.8,4,,
2015/7/13,13:00:00,5,���쓌,3.4,18.4,91.8,0,0.25,5,���쓌,4.3,59,,
2015/7/13,14:00:00,4,��,2.3,18,93.2,0,0.12,4,��,4.5,7,,
2015/7/13,15:00:00,3,���k��,2,18.2,91.2,0,0.13,5,���쓌,3.2,0,,
2015/7/13,16:00:00,4,��,2.8,17.8,91,0,0.11,4,��,3.6,56,,
2015/7/13,17:00:00,5,���쓌,1.5,17,94.1,0,0.06,5,���쓌,3.7,12,,
2015/7/13,18:00:00,2,�k��,0.4,16.9,94.6,0,0.04,6,�쓌,2.2,30,,
2015/7/13,19:00:00,5,���쓌,1.5,16.9,95.6,0,0.04,4,��,2.2,56,,
2015/7/13,20:00:00,4,��,1.9,16,97.1,0,0,5,���쓌,2.9,40,,
2015/7/13,21:00:00,1,�k�k��,1.3,15.7,98.1,0,0,4,��,2.8,0,,
2015/7/13,22:00:00,1,�k�k��,1.1,16,98,0,0,2,�k��,2.6,45,,
2015/7/13,23:00:00,2,�k��,1.2,16.1,97.3,0,0,1,�k�k��,2,51,,
2015/7/13,0:00:00,15,�k�k��,0.7,16.2,97.9,0,0,1,�k�k��,2.4,5,,
2015/7/14,1:00:00,2,�k��,2.8,16.1,96.9,0,0,1,�k�k��,4.8,59,,
2015/7/14,2:00:00,8,��,1.8,16.2,98.1,0,0,2,�k��,4.4,3,,
2015/7/14,3:00:00,2,�k��,0.6,15.9,99.5,0,0,5,���쓌,3.3,42,,
2015/7/14,4:00:00,4,��,0.7,16.1,99.8,0,0,3,���k��,2.3,48,,
2015/7/14,5:00:00,2,�k��,1.3,16.4,100,0,0.01,2,�k��,2.3,5,,
2015/7/14,6:00:00,8,��,0.6,17.2,100,0,0.07,14,�k��,2.7,37,,
2015/7/14,7:00:00,4,��,2,17.8,98.7,0,0.16,5,���쓌,3.9,27,,
2015/7/14,8:00:00,4,��,2,18.7,90.7,0,0.23,5,���쓌,3.4,50,,
2015/7/14,9:00:00,4,��,1.8,20.3,88.3,0,0.23,4,��,3.3,34,,
2015/7/14,10:00:00,3,���k��,1,23.9,82.2,0,0.37,5,���쓌,2.8,8,,
2015/7/14,11:00:00,11,���쐼,6,29.3,58.7,0,0.52,12,��,9.5,49,,
2015/7/14,12:00:00,10,�쐼,6.8,29.1,53.9,0,0.68,11,���쐼,13.7,9,,
2015/7/14,13:00:00,12,��,6.8,29.4,52.2,0,0.59,12,��,11.2,59,,
2015/7/14,14:00:00,11,���쐼,7.1,30.4,48.1,0,0.56,12,��,12.7,32,,
2015/7/14,15:00:00,11,���쐼,6.7,29.6,51.7,0,0.45,10,�쐼,13.3,17,,
2015/7/14,16:00:00,10,�쐼,5.2,29.3,55.8,0,0.29,11,���쐼,12.8,43,,
2015/7/14,17:00:00,10,�쐼,6.9,28.5,54.5,0,0.37,11,���쐼,12.8,19,,
2015/7/14,18:00:00,10,�쐼,3.9,25.9,59.7,0,0.19,9,��쐼,11.7,12,,
2015/7/14,19:00:00,10,�쐼,3.6,26.9,55.7,0,0.05,10,�쐼,8.5,57,,
2015/7/14,20:00:00,10,�쐼,3.9,26.3,57.2,0,0,10,�쐼,10.4,39,,
2015/7/14,21:00:00,8,��,2.6,22.9,71.6,0,0,10,�쐼,7,1,,
2015/7/14,22:00:00,10,�쐼,5.3,25.6,66.2,0,0,11,���쐼,9.9,49,,
2015/7/14,23:00:00,11,���쐼,11,23.8,73.3,0,0,10,�쐼,16.9,53,,
2015/7/14,0:00:00,11,���쐼,8.1,22.9,77.4,0,0,10,�쐼,15.4,3,,
2015/7/15,1:00:00,11,���쐼,3.5,22.8,74.1,0,0,10,�쐼,13,8,,
2015/7/15,2:00:00,11,���쐼,2,22.3,71.8,0,0,12,��,7.7,24,,
2015/7/15,3:00:00,9,��쐼,1.5,18.6,86,0,0,11,���쐼,4.4,1,,
2015/7/15,4:00:00,10,�쐼,3.9,20.3,81.1,0,0,11,���쐼,6.1,46,,
2015/7/15,5:00:00,2,�k��,1.1,19.9,81.2,0,0.05,11,���쐼,8.2,8,,
2015/7/15,6:00:00,12,��,3.5,25.2,61.8,0,0.22,12,��,6.9,57,,
2015/7/15,7:00:00,11,���쐼,5.5,26.8,55.8,0,0.41,12,��,10.5,28,,
2015/7/15,8:00:00,11,���쐼,6,27.5,50,0,0.59,12,��,11.7,18,,
2015/7/15,9:00:00,15,�k�k��,3.7,28.3,51.5,0,0.76,12,��,9.3,13,,
2015/7/15,10:00:00,3,���k��,5.2,28.1,59.4,0,0.88,3,���k��,7.6,49,,
2015/7/15,11:00:00,5,���쓌,5.6,27.5,53.5,0,1,3,���k��,7.3,9,,
2015/7/15,12:00:00,6,�쓌,1.2,27.6,49.7,0,1.04,4,��,8.2,28,,
2015/7/15,13:00:00,6,�쓌,1.2,27.7,46.6,0,1.03,4,��,6.9,33,,
2015/7/15,14:00:00,4,��,5.4,28,48.5,0,0.93,5,���쓌,7.3,59,,
2015/7/15,15:00:00,6,�쓌,4.1,24.1,52.2,0,0.65,5,���쓌,8,16,,
2015/7/15,16:00:00,5,���쓌,2.8,25.6,52.6,0,0.28,6,�쓌,6,14,,
2015/7/15,17:00:00,5,���쓌,3,24.5,56.6,0,0.44,5,���쓌,4.9,53,,
2015/7/15,18:00:00,3,���k��,4.2,19.4,70.4,0,0.24,3,���k��,9,55,,
2015/7/15,19:00:00,3,���k��,5.5,16.3,83.7,0,0.07,3,���k��,10.9,37,,
2015/7/15,20:00:00,3,���k��,4.4,15.5,84.7,0,0,3,���k��,8.8,22,,
2015/7/15,21:00:00,3,���k��,2.3,15.1,83.1,0,0,2,�k��,6.8,7,,
2015/7/15,22:00:00,3,���k��,1.1,14.5,85.8,0,0,3,���k��,3.8,1,,
2015/7/15,23:00:00,5,���쓌,1,13.9,87.9,0,0,3,���k��,2.1,2,,
2015/7/15,0:00:00,4,��,1.3,13.7,85.2,0,0,4,��,2.2,50,,
2015/7/16,1:00:00,4,��,1.3,12.5,88.9,0,0,4,��,2.5,20,,
2015/7/16,2:00:00,5,�É�,0.1,12.7,89.2,0,0,3,���k��,2.1,5,,
2015/7/16,3:00:00,11,�É�,0,13.1,92.1,0,0,11,���쐼,0.5,59,,
2015/7/16,4:00:00,12,��,0.6,12.1,95.8,0,0,14,�k��,1.3,40,,
2015/7/16,5:00:00,12,��,0.6,13.2,91.6,0,0.02,12,��,1,54,,
2015/7/16,6:00:00,2,�k��,2.3,13.7,80.9,0,0.09,2,�k��,3.6,58,,
2015/7/16,7:00:00,2,�k��,1.9,14.5,79.9,0,0.21,2,�k��,3.8,17,,
2015/7/16,8:00:00,4,��,2.3,15.8,78.1,0,0.36,5,���쓌,3.9,43,,
2015/7/16,9:00:00,4,��,4.2,16.1,74.7,0,0.51,4,��,5.7,54,,
2015/7/16,10:00:00,4,��,3.8,16,72.8,0,0.64,4,��,6.4,32,,
2015/7/16,11:00:00,4,��,3.5,16.6,71.7,0,0.74,5,���쓌,6,6,,
2015/7/16,12:00:00,4,��,4.7,16.1,72.1,0,0.81,5,���쓌,6.2,50,,
2015/7/16,13:00:00,5,���쓌,3.6,17,76.4,0,0.79,5,���쓌,6.3,36,,
2015/7/16,14:00:00,6,�쓌,3,17.5,76.6,0,0.82,5,���쓌,5.6,1,,
2015/7/16,15:00:00,5,���쓌,3.2,16.6,74.2,0,0.49,5,���쓌,5.1,40,,
2015/7/16,16:00:00,5,���쓌,2.9,16.4,77,0,0.41,5,���쓌,5,48,,
2015/7/16,17:00:00,6,�쓌,1.7,16,78,0,0.2,5,���쓌,4.5,2,,
2015/7/16,18:00:00,6,�쓌,1.8,15.2,84.4,0,0.17,6,�쓌,3.3,11,,
2015/7/16,19:00:00,4,��,1.1,15,88.6,0,0.04,6,�쓌,2.3,12,,
2015/7/16,20:00:00,4,��,0.7,14.7,90.5,0,0,5,���쓌,1.5,22,,
2015/7/16,21:00:00,4,��,0.4,14.7,92.2,0,0,1,�k�k��,1.5,33,,
2015/7/16,22:00:00,1,�k�k��,1.6,14.3,93.7,0,0,1,�k�k��,2.5,55,,
2015/7/16,23:00:00,2,�k��,2.1,14.1,92.1,0,0,2,�k��,3.4,49,,
2015/7/16,0:00:00,2,�k��,2.2,13.8,92.3,0,0,2,�k��,3.8,7,,
2015/7/17,1:00:00,2,�k��,1.9,13.3,91.4,0,0,2,�k��,3.2,27,,
2015/7/17,2:00:00,4,��,0.3,13.1,88.7,0,0,3,���k��,2.5,32,,
2015/7/17,3:00:00,13,�É�,0.2,13.1,91.1,0,0,13,���k��,0.8,47,,
2015/7/17,4:00:00,13,���k��,0.6,12.9,93.3,0,0,13,���k��,1.2,55,,
2015/7/17,5:00:00,11,���쐼,0.8,12.9,96.1,0,0.03,10,�쐼,1.7,31,,
2015/7/17,6:00:00,11,���쐼,0.8,14.4,82.5,0,0.11,12,��,1.8,54,,
2015/7/17,7:00:00,14,�É�,0.2,16,82.5,0,0.26,12,��,3.1,44,,
2015/7/17,8:00:00,7,��쓌,2.1,17.3,73.6,0,0.6,8,��,3.5,53,,
2015/7/17,9:00:00,7,��쓌,1.9,18,75.1,0,0.77,7,��쓌,4.7,32,,